TimeAKST,TemperatureF,Dew PointF,Humidity,Sea Level PressureIn,VisibilityMPH,Wind Direction,Wind SpeedMPH,Gust SpeedMPH,PrecipitationIn,Events,Conditions,WindDirDegrees,DateUTC
12:53 AM,-8.0,-11.9,83,29.29,10.0,Calm,Calm,-,N/A,,Overcast,0,2013-02-22 09:53:00
1:53 AM,-8.0,-11.9,83,29.30,10.0,West,4.6,-,N/A,,Mostly Cloudy,280,2013-02-22 10:53:00
3:53 AM,-11.0,-14.1,86,29.30,10.0,NNW,5.8,-,N/A,,Scattered Clouds,330,2013-02-22 12:53:00
4:02 AM,-11.0,-15.0,83,29.13,10.0,NW,4.6,-,N/A,,Mostly Cloudy,320,2013-02-22 13:02:00
4:13 AM,-11.9,-16.1,82,29.13,10.0,NNW,3.5,-,N/A,,Overcast,330,2013-02-22 13:13:00
4:35 AM,-9.0,-13.0,83,29.13,10.0,Calm,Calm,-,N/A,,Scattered Clouds,0,2013-02-22 13:35:00
4:53 AM,-9.9,-15.0,78,29.30,10.0,NNW,3.5,-,N/A,,Clear,330,2013-02-22 13:53:00
5:53 AM,-11.9,-16.1,82,29.33,10.0,Calm,Calm,-,N/A,,Clear,0,2013-02-22 14:53:00
6:02 AM,-14.1,-18.0,82,29.15,10.0,Calm,Calm,-,N/A,,Scattered Clouds,0,2013-02-22 15:02:00
6:53 AM,-9.0,-13.0,83,29.34,10.0,NW,3.5,-,N/A,,Overcast,320,2013-02-22 15:53:00
7:24 AM,-6.0,-9.9,83,29.17,10.0,NNW,4.6,-,N/A,,Overcast,330,2013-02-22 16:24:00
7:53 AM,-4.0,-8.0,83,29.35,10.0,Calm,Calm,-,N/A,,Overcast,0,2013-02-22 16:53:00
8:53 AM,-2.0,-7.1,79,29.37,10.0,NNE,3.5,-,0.00,Snow,Light Snow,20,2013-02-22 17:53:00
9:53 AM,-0.9,-6.0,79,29.39,10.0,NNE,4.6,-,0.00,,Overcast,20,2013-02-22 18:53:00
10:53 AM,3.0,-2.9,76,29.40,10.0,North,3.5,-,N/A,,Overcast,10,2013-02-22 19:53:00
11:53 AM,6.1,-0.9,73,29.41,10.0,NNE,3.5,-,0.00,Snow,Light Snow,20,2013-02-22 20:53:00
12:53 PM,7.0,-0.0,73,29.42,10.0,Calm,Calm,-,0.00,Snow,Light Snow,0,2013-02-22 21:53:00
1:53 PM,9.0,1.9,73,29.44,10.0,Calm,Calm,-,0.00,Snow,Light Snow,0,2013-02-22 22:53:00
2:53 PM,10.0,3.0,73,29.45,7.0,Calm,Calm,-,0.00,Snow,Light Snow,0,2013-02-22 23:53:00
3:53 PM,10.9,5.0,77,29.46,3.0,East,3.5,-,0.00,Snow,Light Snow,80,2013-02-23 00:53:00
4:53 PM,10.9,6.1,81,29.48,7.0,Calm,Calm,-,0.00,,Overcast,0,2013-02-23 01:53:00
5:53 PM,10.0,6.1,84,29.49,10.0,Calm,Calm,-,N/A,,Overcast,0,2013-02-23 02:53:00
6:53 PM,9.0,5.0,84,29.52,10.0,Calm,Calm,-,N/A,,Overcast,0,2013-02-23 03:53:00
7:53 PM,9.0,5.0,84,29.52,10.0,Calm,Calm,-,N/A,,Overcast,0,2013-02-23 04:53:00
8:53 PM,9.0,6.1,88,29.52,10.0,Calm,Calm,-,N/A,,Overcast,0,2013-02-23 05:53:00
9:26 PM,8.1,5.0,87,29.35,10.0,Calm,Calm,-,N/A,,Overcast,0,2013-02-23 06:26:00
9:53 PM,9.0,6.1,88,29.53,10.0,Calm,Calm,-,N/A,,Overcast,0,2013-02-23 06:53:00
10:53 PM,9.0,5.0,84,29.53,10.0,Calm,Calm,-,N/A,,Overcast,0,2013-02-23 07:53:00
11:53 PM,8.1,3.9,83,29.52,10.0,NNE,6.9,-,N/A,,Overcast,30,2013-02-23 08:53:00